Salina, KS

9:14 AM CDT on April 29, 2017 (GMT -0500)
Salina Municipal

Weather History for KSLN - October, 2013

Change the Weather History Date:

Wednesday, October 9, 2013

  Actual Average Record
Temperature  
Mean Temperature 70 °F 60 °F  
Max Temperature 83 °F 72 °F 94 °F (1921)
Min Temperature 57 °F 49 °F 23 °F (2000)
Degree Days  
Heating Degree Days 0 7  
Month to date heating degree days 24 51  
Since 1 July heating degree days 36 103  
Cooling Degree Days 5 2  
Month to date cooling degree days 43 20  
Year to date cooling degree days 1738 1632  
Growing Degree Days 20 (Base 50)    
Moisture  
Dew Point 49 °F    
Average Humidity 50    
Maximum Humidity 72    
Minimum Humidity 28    
Precipitation  
Precipitation 0.00 in 0.07 in 3.31 in (1985)
Month to date precipitation 0.03 0.75  
Year to date precipitation 27.90 27.79  
Sea Level Pressure  
Sea Level Pressure 29.92 in    
Wind  
Wind Speed 17 mph (SSE)    
Max Wind Speed 28 mph    
Max Gust Speed 35 mph    
Visibility 10 miles    
Events      
T = Trace of Precipitation, MM = Missing Value Source: NWS Daily Summary

Daily Weather History Graph

Daily Weather History Graph

Search for Another Location

Airport or City:

Trip Planner

Search our weather history database for the weather conditions in past years. The results will help you decide how hot, cold, wet, or windy it might be!

Date:

Astronomy

Oct. 09, 2013 Rise Set
Actual Time 7:34 AM CDT 7:00 PM CDT
Civil Twilight 7:07 AM CDT 7:27 PM CDT
Nautical Twilight 6:36 AM CDT 7:57 PM CDT
Astronomical Twilight 6:05 AM CDT 8:28 PM CDT
Moon 12:28 PM CDT (10/9) 10:38 PM CDT (10/9)
Length of Visible Light 12h 19m
Length of Day
11h 26m
Waxing Crescent, 25% of the Moon is Illuminated
Oct 9
Waxing Crescent
Oct 11
First Quarter
Oct 18
Full
Oct 26
Last Quarter
Nov 3
New

Hourly Weather History & Observations

Time (CDT) Temp. Dew Point Humidity Pressure Visibility Wind Dir Wind Speed Gust Speed Precip Events Conditions
12:53 AM 61.0 °F 48.0 °F 62% 29.92 in 10.0 mi SSE 17.3 mph - N/A   Clear
1:53 AM 59.0 °F 46.9 °F 64% 29.92 in 10.0 mi SSE 13.8 mph - N/A   Clear
2:53 AM 57.9 °F 46.9 °F 67% 29.93 in 10.0 mi SSE 13.8 mph - N/A   Clear
3:53 AM 57.9 °F 46.9 °F 67% 29.92 in 10.0 mi South 12.7 mph - N/A   Clear
4:53 AM 57.9 °F 46.9 °F 67% 29.92 in 10.0 mi South 13.8 mph - N/A   Clear
5:53 AM 57.9 °F 46.9 °F 67% 29.93 in 10.0 mi SSE 17.3 mph - N/A   Clear
6:53 AM 57.9 °F 48.0 °F 70% 29.93 in 10.0 mi SSE 17.3 mph - N/A   Clear
7:53 AM 60.1 °F 48.0 °F 64% 29.93 in 10.0 mi South 15.0 mph 25.3 mph N/A   Clear
8:53 AM 63.0 °F 48.9 °F 60% 29.94 in 10.0 mi South 18.4 mph 28.8 mph N/A   Clear
9:53 AM 64.9 °F 48.9 °F 56% 29.95 in 10.0 mi South 19.6 mph 28.8 mph N/A   Clear
10:53 AM 69.1 °F 50.0 °F 51% 29.96 in 10.0 mi South 21.9 mph 27.6 mph N/A   Clear
11:53 AM 73.9 °F 48.9 °F 41% 29.95 in 10.0 mi South 18.4 mph 28.8 mph N/A   Clear
12:53 PM 78.1 °F 48.9 °F 36% 29.94 in 10.0 mi South 20.7 mph 27.6 mph N/A   Clear
1:53 PM 81.0 °F 46.9 °F 30% 29.91 in 10.0 mi SSE 20.7 mph 28.8 mph N/A   Clear
2:53 PM 82.9 °F 46.0 °F 27% 29.89 in 10.0 mi South 19.6 mph 32.2 mph N/A   Clear
3:53 PM 82.9 °F 46.0 °F 27% 29.88 in 10.0 mi South 25.3 mph 31.1 mph N/A   Clear
4:53 PM 82.0 °F 46.0 °F 28% 29.88 in 10.0 mi SSE 19.6 mph 33.4 mph N/A   Clear
5:53 PM 80.1 °F 46.0 °F 30% 29.88 in 10.0 mi South 23.0 mph 31.1 mph N/A   Clear
6:53 PM 75.9 °F 48.0 °F 37% 29.88 in 10.0 mi SSE 13.8 mph - N/A   Clear
7:53 PM 72.0 °F 51.1 °F 48% 29.91 in 10.0 mi SSE 15.0 mph - N/A   Clear
8:53 PM 71.1 °F 51.1 °F 49% 29.92 in 10.0 mi SSE 16.1 mph - N/A   Clear
9:53 PM 69.1 °F 52.0 °F 54% 29.94 in 10.0 mi SSE 16.1 mph - N/A   Clear
10:53 PM 66.0 °F 53.1 °F 63% 29.95 in 10.0 mi SE 12.7 mph - N/A   Clear
11:53 PM 64.9 °F 54.0 °F 68% 29.95 in 10.0 mi SSE 12.7 mph - N/A   Clear